Regional Weather Roundup
Issued by NWS Sterling, VA

Home | Current Version | Previous Version | Text Only | Print | Product List | Glossary Off
Versions: 1 2 3 4 5 6 7 8 9 10 11 12 13 14 15 16 17 18 19 20 21 22 23 24 25 26 27 28 29 30 31 32 33 34 35 36 37 38 39 40 41 42 43 44 45 46 47 48 49 50

000
ASUS41 KLWX 271310
RWRLWX

REGIONAL WEATHER ROUNDUP
NATIONAL WEATHER SERVICE BALTIMORE MD/WASHINGTON DC
900 AM EDT FRI MAY 27 2016

Note: "FAIR" indicates few or no clouds below 12,000 feet
with no significant weather and/or obstructions to visibility.
 TC=TEMPERATURE CELSIUS

 * =Non NWS site. Station does not report precipitation (e.g. rain,
    snow, etc.), thunder, or fog.

DCZ001-MDZ009-015-VAZ040>042-051-053>054-271400-
WASHINGTON METRO

CITY           SKY/WX    TMP DP  RH WIND       PRES   REMARKS
WASHINGTON NAT FAIR      75  66  73 S8        30.09S
DULLES         FAIR      76  66  71 S3        30.09S
ANDREWS AFB    SUNNY     77  66  68 SW8       30.08S
FT BELVOIR     FAIR      76  66  71 S3        30.08F
QUANTICO       FAIR      73  67  81 S8        30.10S
COLLEGE PARK*  FAIR      75  64  69 CALM      30.08S
LEESBURG*      FAIR      77  70  78 S6        30.09F
MANASSAS*      SUNNY     75  70  83 CALM      30.09S

$$

MDZ006>007-011-014-271400-
BALTIMORE METRO

CITY           SKY/WX    TMP DP  RH WIND       PRES   REMARKS
BWI AIRPORT    MOSUNNY   78  65  63 SW7       30.07S
MD SCIENCE CTR   N/A     78  65  63 MISG      30.07S
MARTIN STATE   MOSUNNY   77  70  78 S5        30.09R
ANNAPOLIS      MOSUNNY   76  66  71 VRB6      30.07S
FORT MEADE*    SUNNY     75  66  73 SW5       30.10S

$$

MDZ012-015-019>023-271400-
MARYLAND EASTERN SHORE

CITY           SKY/WX    TMP DP  RH WIND       PRES   REMARKS
OCEAN CITY     MOSUNNY   75  63  66 SW10      30.12R
SALISBURY      SUNNY     76  64  66 SW14      30.11S
BAY BRIDGE AP* MOSUNNY   75  66  73 SW8       30.08S
CAMBRIDGE*     SUNNY     73  64  73 SW5       30.10R
EASTON*        SUNNY     77  72  83 SW9       30.13R

$$

MDZ017>025-271400-
SOUTHERN MARYLAND

CITY           SKY/WX    TMP DP  RH WIND       PRES   REMARKS
PATUXENT RIVER MOSUNNY   75  64  68 SW15      30.09R
ST INIGOES     SUNNY     74  64  71 SW8       30.10R
LEONARDTOWN*   SUNNY     73  63  68 W13       30.12R

$$

MDZ003>005-271400-
NORTH CENTRAL MARYLAND

CITY           SKY/WX    TMP DP  RH WIND       PRES   REMARKS
FREDERICK*     SUNNY     77  70  78 SW5       30.11S
HAGERSTOWN APT SUNNY     75  65  70 S5        30.09S
WESTMINSTER*   SUNNY     75  72  88 SW6       30.09F

$$

MDZ501>502-271400-
WESTERN MARYLAND

CITY           SKY/WX    TMP DP  RH WIND       PRES   REMARKS
OAKLAND*       SUNNY     66  61  82 SW5       30.18S
CUMBERLAND*    CLOUDY    66  66 100 CALM      30.14F

$$

VAZ025>031-271400-
SHENANDOAH VALLEY

CITY           SKY/WX    TMP DP  RH WIND       PRES   REMARKS
WINCHESTER*    FAIR      75  64  69 SW5       30.10R
FRONT ROYAL*   FAIR      73  66  78 CALM      30.09S
LURAY*         FAIR      72  66  83 CALM      30.11S
NEW MARKET*    FAIR      72  65  80 CALM      30.11R
STAUNTON*      FAIR      70  64  82 CALM      30.14R
WAYNESBORO*    FAIR      72  63  73 CALM      30.13S

$$

WVZ021-048>050-054>055-271400-
EASTERN WEST VIRGINIA PANHANDLE

CITY           SKY/WX    TMP DP  RH WIND       PRES   REMARKS
MARTINSBURG    FAIR      74  65  73 CALM      30.09R
PETERSBURG*    FAIR      68  65  88 CALM      30.13S

$$

VAZ036>039-050-271400-
CENTRAL FOOTHILLS

CITY           SKY/WX    TMP DP  RH WIND       PRES   REMARKS
CHARLOTTESVILL FAIR      75  65  70 VRB3      30.10S
CULPEPER*      FAIR      76  68  76 SW3       30.10R
ORANGE*        FAIR      77  68  73 SW3       30.11S
GORDONSVILLE*  FAIR      75  68  79 SW6       30.09S
WARRENTON*     FAIR      77  62  61 SW5       30.09S

$$

VAZ055>057-271400-
NORTH AND CENTRAL PIEDMONT

CITY           SKY/WX    TMP DP  RH WIND       PRES   REMARKS
FREDERICKSBRG* NOT AVBL
STAFFORD*      FAIR      76  66  71 S5        30.13S

$$

NCZ024-NYZ072-PAZ021-071-VAZ022-071-271400-
OTHER REGIONAL OBSERVATIONS

CITY           SKY/WX    TMP DP  RH WIND       PRES   REMARKS
NEW YORK CITY  MOSUNNY   76  61  59 CALM      30.09S
PHILADELPHIA   MOSUNNY   77  65  66 SW9       30.07F
PITTSBURGH     PTSUNNY   72  63  73 SW7       30.08R
ROANOKE        FAIR      73  64  73 VRB3      30.16R
RICHMOND       FAIR      73  63  70 SW8       30.12R
RALEIGH        MOSUNNY   74  62  66 W12G18    30.16S

$$

ANZ530>537-271400-
MARINE OBSERVATIONS

STATION/POSITION TIME  TEMP    WIND        PRES
                       AIR SEA DIR/SP/G
                 (UTC) (F)     (DEG/KT/KT) (MB)
THOMAS PT LIGHT  1200   69 65  190/  7/  8 1019.9R
BALT KEY BRIDGE  1200   72     150/  5/  6 1018.1F
COVE POINT       1200   72     260/ 15/ 21 1019.0R
LEWISETTA        1200   73 67  250/ 10/ 14 1018.7R
SOLOMONS ISLAND  1200   72 65  230/ 10/ 14   N/A
PINEY POINT      1200          250/  5/  7   N/A

$$




USA.gov is the U.S. government's official web portal to all federal, state and local government web resources and services.